Theta_e
322 322 323 325 326 325 330 329 328 332 332 332 334 333 336 336 338 337 344 342 336 329 328 340 340 340 339 338 334 328 336 340 341 341 339 331 325 322 320 319 319 319 320 320 320 320 320 319 318
320 321 323 323 326 332 332 331 332 331 327 331 331 329 333 337 342 342 343 343 339 326 325 340 340 340 339 338 331 326 326 334 336 338 335 327 323 320 319 319 320 320 320 320 320 320 320 320 319
318 320 323 316 322 331 333 330 322 323 330 331 328 330 331 333 337 338 341 340 335 325 324 337 340 339 337 333 325 322 320 323 329 333 327 323 321 320 320 320 320 320 320 320 320 320 320 319 319
319 321 321 320 321 321 329 322 321 323 330 330 328 327 328 332 334 337 339 338 331 324 324 336 338 338 335 327 322 320 319 323 327 324 323 321 320 320 320 321 321 320 320 320 320 320 320 319 319
319 320 318 320 321 320 320 321 321 322 326 329 329 327 327 336 336 336 338 339 337 323 325 333 336 336 333 325 321 320 320 323 324 323 322 321 320 321 321 321 320 320 320 320 320 320 319 319 319
317 318 317 320 320 321 320 322 322 321 321 328 328 327 327 329 329 332 340 340 338 327 325 332 335 337 333 326 322 321 322 323 322 322 321 321 321 321 321 321 320 320 320 320 319 319 319 318 318
314 313 317 319 320 320 321 321 320 318 318 321 322 326 327 332 331 338 340 338 340 333 325 328 333 336 334 328 324 322 321 322 322 322 322 322 322 321 321 321 321 320 320 319 319 319 318 318 318
316 311 315 316 318 319 319 319 320 319 318 319 320 326 326 328 333 340 341 340 340 338 330 326 330 333 333 332 329 324 322 321 320 321 322 322 323 322 321 321 321 320 320 320 319 319 319 318 318
315 311 313 315 316 316 317 315 318 318 318 319 320 321 323 327 330 335 341 340 342 339 335 327 327 330 332 332 331 329 325 323 322 321 321 321 322 322 322 321 321 320 320 320 320 320 320 320 319
311 309 312 313 314 315 315 315 316 317 317 317 318 319 321 326 330 335 336 334 335 341 341 335 326 327 329 330 330 329 328 327 324 323 322 321 321 322 322 321 321 321 321 321 321 327 329 327 325
309 310 310 313 315 315 313 315 316 316 315 317 317 317 319 325 329 334 330 330 330 336 342 342 331 325 326 329 328 329 327 328 328 325 323 322 322 321 321 321 321 321 321 321 325 333 332 333 328
311 311 311 312 313 312 312 314 313 315 316 317 317 317 320 322 324 329 329 328 330 333 341 343 337 329 325 328 329 328 328 327 327 327 326 323 322 322 321 321 321 321 321 325 329 335 335 335 334
309 310 312 313 313 313 313 312 312 313 316 317 317 317 319 323 324 325 329 328 328 330 336 339 345 340 329 323 327 328 328 327 326 326 327 327 325 323 322 321 321 321 321 324 332 333 337 337 337
310 310 310 312 312 312 312 312 313 315 316 317 317 317 317 321 325 325 331 331 330 329 329 330 336 340 337 326 323 322 325 327 328 330 330 331 330 328 326 323 321 321 321 322 328 335 337 336 336
310 309 308 310 312 312 312 311 312 314 315 316 315 315 316 316 317 324 326 327 327 328 328 327 330 336 341 342 333 325 323 325 328 329 337 337 333 331 330 328 325 321 321 322 327 333 339 340 339
308 306 307 307 310 311 312 311 311 313 313 313 314 315 315 316 316 317 321 325 326 327 327 327 327 328 334 341 344 340 332 326 326 331 326 327 326 326 326 326 326 324 322 323 327 333 338 340 342
304 305 307 308 308 310 311 310 311 315 314 313 314 315 315 316 316 316 317 323 326 326 327 326 325 326 336 343 342 341 339 333 328 328 328 330 330 337 332 326 326 324 330 337 338 339 342 341 340
307 308 309 309 310 310 310 308 308 314 312 313 314 315 315 316 316 316 317 317 317 320 326 326 325 326 332 336 340 341 338 331 328 332 334 331 333 336 339 337 337 340 342 341 342 342 343 341 340
310 309 309 309 310 311 310 309 309 311 311 312 313 314 315 315 316 316 316 316 317 319 319 325 325 325 330 333 338 341 339 339 341 340 340 333 329 329 334 340 342 342 339 340 343 341 339 339 341
309 309 309 310 310 309 309 309 309 308 310 313 314 314 315 315 315 315 315 316 316 317 319 319 325 327 328 336 340 340 341 342 335 340 339 337 338 331 330 330 339 337 336 333 334 338 335 335 337
310 310 310 311 311 310 310 310 310 311 311 313 313 314 314 314 314 314 314 315 315 316 316 319 321 327 332 333 339 341 337 338 333 334 332 334 333 337 335 331 329 327 331 331 328 331 331 336 335
309 309 311 311 310 310 310 312 309 309 309 309 312 313 314 314 314 315 315 314 315 315 316 316 321 324 331 333 340 337 332 333 330 328 333 331 332 333 334 334 333 334 331 332 332 331 330 329 332
310 311 310 311 310 309 310 308 308 308 309 309 309 313 314 314 315 315 317 317 317 317 317 317 317 321 327 334 332 333 330 329 328 331 335 335 334 336 334 333 336 335 333 330 331 331 329 331 329
311 312 309 306 306 309 309 309 311 309 309 310 310 312 313 313 313 314 316 317 317 317 316 316 317 317 321 329 336 336 330 330 332 332 331 330 330 329 330 332 331 332 334 330 331 330 330 329 329
311 309 309 311 311 315 311 310 310 309 310 309 309 312 315 315 315 315 316 317 317 317 317 317 316 316 319 325 333 336 335 334 334 332 330 331 330 330 329 328 328 328 330 330 328 328 329 329 329
309 308 310 314 313 313 312 313 312 310 311 313 314 314 315 315 314 314 316 318 317 317 317 316 315 317 323 327 329 332 333 328 323 319 316 316 315 315 319 322 326 327 327 326 326 327 327 328 329
313 312 311 312 312 313 313 312 313 313 313 313 313 313 312 313 315 314 315 319 319 318 318 318 320 324 326 324 318 316 316 316 315 314 313 313 314 313 312 313 313 314 318 323 324 326 327 330 331
313 313 315 315 320 319 314 315 315 314 313 312 312 311 312 312 313 315 315 315 319 320 321 323 324 322 318 317 317 316 316 316 315 314 314 314 313 315 314 314 313 312 312 313 314 319 323 325 324
314 317 316 316 318 320 320 316 311 312 312 313 310 312 311 312 313 313 315 315 315 318 320 320 318 317 317 317 316 316 316 316 314 314 315 315 315 314 314 314 313 312 312 312 313 313 315 318 321
316 316 315 319 320 321 320 316 311 311 312 311 310 310 311 312 313 314 315 315 315 314 315 317 318 319 318 317 316 316 316 316 315 314 315 316 316 316 316 316 314 313 313 312 313 314 315 316 317
Wind_Speed
12 12 14 4 3 4 2 5 1 5 4 6 4 2 3 3 4 4 2 14 11 22 29 30 28 26 24 23 22 24 27 26 23 20 17 15 16 16 15 14 14 13 13 13 12 11 10 8 8
12 11 7 3 4 2 3 2 4 2 8 7 6 1 4 2 4 6 8 10 9 21 27 30 29 27 24 22 22 25 27 27 25 21 17 17 17 17 16 15 15 14 12 12 11 10 9 7 6
11 8 4 4 3 4 3 2 2 9 6 1 2 5 3 2 1 1 5 12 12 23 25 29 29 27 25 24 24 26 27 27 26 23 21 19 18 17 17 16 15 13 12 11 10 9 7 6 4
4 1 4 3 4 5 3 3 6 5 6 9 2 3 2 1 1 2 5 13 13 24 25 27 28 27 25 24 25 26 28 28 28 26 24 22 20 18 17 16 14 13 11 9 8 7 6 5 3
2 2 2 1 4 4 4 4 9 4 8 1 3 4 1 4 5 6 8 9 12 22 24 27 28 27 26 25 25 26 28 29 27 26 24 23 21 19 17 15 13 12 10 8 7 6 5 4 2
3 3 3 4 6 2 4 6 7 4 9 8 3 6 5 7 5 8 7 11 13 20 24 27 27 28 27 26 26 26 27 28 28 26 25 22 21 19 17 15 13 11 9 7 5 4 3 3 2
6 4 4 3 4 6 2 2 3 5 7 7 15 3 4 10 12 14 10 8 10 17 22 26 28 29 28 27 27 27 26 27 27 26 24 22 19 17 16 14 12 10 8 6 4 2 2 1 1
5 4 5 4 3 7 1 3 2 12 7 20 15 4 5 14 13 18 15 11 13 18 22 26 29 31 30 29 28 27 26 26 25 25 23 22 19 17 14 12 10 8 6 5 3 3 3 3 3
5 4 3 5 5 5 6 5 6 12 17 17 9 14 17 13 18 18 21 17 16 21 24 28 30 33 32 31 29 28 27 26 25 25 24 23 21 18 15 12 10 8 6 5 5 6 6 6 5
4 4 8 5 4 2 6 6 15 7 16 17 21 16 16 13 18 21 20 18 18 21 24 28 30 33 34 34 32 30 29 29 28 26 25 24 22 19 16 13 11 10 8 8 8 7 5 5 4
5 5 4 5 12 11 6 12 11 5 8 15 18 27 18 13 17 20 16 14 14 17 21 27 31 32 34 36 36 34 33 31 29 28 27 25 23 22 19 17 15 12 10 9 9 5 1 0 2
2 8 5 5 14 7 5 13 5 14 23 27 23 25 15 8 20 24 20 19 19 19 20 24 31 32 35 37 38 38 37 36 33 30 28 27 25 23 21 20 17 14 11 10 10 7 3 2 1
3 3 5 10 12 12 15 12 10 10 13 16 16 13 13 5 17 24 26 23 18 17 14 14 23 26 30 33 36 38 38 38 36 33 30 28 26 24 22 21 19 17 14 11 10 9 8 6 7
5 4 7 7 12 10 5 7 2 7 19 13 11 18 17 9 10 20 24 24 22 18 16 14 18 21 27 30 33 36 38 39 36 33 31 30 27 25 23 22 21 20 17 15 14 13 13 10 10
2 4 4 6 8 6 4 9 6 9 5 10 15 13 17 18 15 18 21 24 23 20 19 17 18 22 25 28 31 33 36 38 33 27 28 29 28 25 23 22 20 21 19 18 18 16 15 14 14
4 5 3 6 3 6 5 8 10 8 5 8 11 12 16 20 20 21 23 28 27 24 23 20 21 23 26 29 29 31 33 36 33 30 40 32 31 28 27 24 23 19 18 18 19 18 18 18 17
6 3 3 8 5 2 3 4 5 13 16 19 16 17 17 19 18 21 21 26 28 27 27 24 24 25 27 28 29 29 29 30 29 30 35 35 35 24 25 25 21 19 17 14 14 14 19 19 21
3 2 4 5 4 1 5 9 9 18 14 17 20 17 15 15 15 15 19 22 25 30 34 31 29 28 31 31 32 33 33 30 29 30 29 37 29 20 17 19 18 19 15 12 13 12 17 21 23
2 3 7 7 13 3 8 8 12 18 14 17 15 13 15 15 14 12 12 13 14 20 32 36 35 34 36 37 39 37 34 32 31 31 25 27 33 35 40 20 19 15 15 15 16 13 15 23 24
5 6 8 9 11 5 9 10 10 7 8 15 13 15 20 22 22 20 22 19 18 19 22 33 39 40 39 41 40 38 36 29 29 30 26 24 28 35 35 36 26 24 34 30 28 18 17 20 22
5 5 5 9 5 3 4 4 6 5 6 16 22 22 22 24 26 29 29 25 22 22 22 23 33 43 43 41 42 36 34 33 34 32 32 30 31 32 37 36 21 36 45 40 46 35 20 18 21
7 9 10 6 1 7 4 12 7 5 10 7 22 25 24 26 30 24 25 27 26 28 27 27 32 40 44 43 42 40 42 40 39 37 35 31 31 33 34 30 30 38 38 35 38 35 33 23 25
9 2 8 7 6 0 4 6 5 1 7 10 9 27 29 28 26 25 21 22 25 27 27 29 34 41 45 46 45 43 41 39 34 30 28 27 27 27 28 27 22 26 28 25 25 30 18 17 20
5 3 2 4 2 5 8 7 4 5 8 6 9 21 27 30 31 35 30 30 30 30 35 40 42 44 48 48 49 46 44 41 36 31 29 29 29 28 28 28 28 25 22 21 30 30 31 27 24
4 4 4 4 3 11 6 4 7 7 9 6 8 18 22 26 29 28 27 27 29 31 38 39 39 44 46 48 47 47 44 40 37 31 28 26 27 29 28 30 31 30 30 28 25 25 34 40 44
7 8 5 7 4 8 4 6 6 6 3 4 4 12 20 24 30 23 25 22 27 27 32 23 27 36 42 44 42 33 27 25 25 24 26 29 31 28 25 28 33 34 33 31 29 30 36 35 38
3 5 3 2 2 4 5 6 6 1 1 7 13 18 24 24 23 25 19 22 20 22 21 17 23 27 30 29 26 24 19 17 17 16 17 20 24 27 24 23 23 24 25 28 29 26 24 24 26
6 2 1 2 5 7 4 4 6 6 4 6 9 17 27 30 25 20 18 19 21 18 10 12 22 27 30 28 23 22 20 17 15 13 14 10 12 18 21 22 22 21 22 23 25 27 31 33 31
2 2 2 1 3 6 11 5 5 4 2 6 9 23 29 30 29 25 21 23 24 19 21 23 25 25 28 27 27 27 25 18 18 17 18 18 13 13 14 13 17 20 22 22 22 24 25 27 28
12 17 12 6 4 4 2 6 1 2 2 6 16 25 30 29 26 25 24 26 27 22 19 27 30 29 26 24 28 32 29 27 27 24 25 24 20 18 16 15 14 13 14 16 19 20 20 21 24
Wind_Direction
310 324 335 334 58 66 207 256 302 358 0 330 43 48 111 80 141 219 261 172 177 185 176 176 178 179 179 180 178 171 166 165 167 169 165 159 152 147 144 140 137 133 130 126 121 115 114 114 115
301 321 337 42 91 107 243 278 19 348 282 294 271 5 59 90 91 109 122 170 185 187 180 178 180 181 183 184 181 176 173 174 174 174 170 163 157 152 148 144 141 138 134 130 123 119 117 114 115
290 320 343 85 112 186 203 148 159 317 360 350 7 45 35 5 73 117 171 177 178 187 185 181 181 184 185 185 181 176 174 173 174 172 169 166 161 156 152 149 147 144 141 136 132 130 127 125 121
244 280 61 93 221 253 234 6 325 5 324 55 74 53 55 339 69 61 168 181 180 187 187 185 183 184 187 184 178 174 171 170 169 169 168 166 164 161 158 157 155 151 147 143 141 140 137 136 132
172 101 73 90 258 260 268 328 339 14 303 279 5 153 69 99 140 123 131 171 179 184 190 190 187 187 186 185 180 174 170 169 170 170 170 170 168 166 165 164 161 157 153 154 155 152 150 144 141
112 97 86 223 255 231 291 300 329 12 1 307 318 152 170 154 166 156 142 174 189 189 192 193 190 189 190 187 183 178 175 174 173 174 175 175 173 172 172 170 167 166 164 165 167 166 160 160 162
119 89 192 205 266 301 209 350 8 341 350 331 339 267 205 176 166 160 155 157 175 196 199 198 194 193 193 193 188 185 183 181 181 180 179 179 180 180 181 178 178 174 174 180 184 197 210 202 232
134 91 155 235 208 276 93 341 307 351 303 328 337 231 203 194 168 170 169 177 186 195 206 205 199 196 197 197 195 192 191 190 187 186 187 185 187 189 190 190 190 192 189 198 216 240 259 271 274
139 70 201 221 179 240 301 21 287 315 295 320 332 328 309 238 191 181 176 181 189 199 207 209 206 202 200 201 201 198 199 199 197 195 193 192 192 194 198 201 204 210 215 230 246 257 267 275 284
112 139 219 219 203 234 279 298 301 309 306 301 316 317 328 209 205 189 184 186 196 201 204 212 212 209 204 203 205 206 205 206 206 204 203 200 200 200 202 207 216 225 233 245 259 270 280 269 265
167 206 223 250 258 268 272 282 280 257 294 285 303 307 309 217 216 204 205 214 235 212 209 212 213 214 211 208 207 210 211 213 214 212 211 209 209 208 207 212 218 228 242 257 255 251 255 24 203
179 248 228 276 284 287 230 276 264 253 266 294 293 293 289 254 239 216 218 228 218 219 214 215 215 216 216 214 214 215 214 215 218 220 220 218 217 218 217 219 225 231 243 253 249 252 249 249 242
173 258 292 288 286 278 282 260 255 277 311 317 291 286 285 281 239 229 225 220 219 214 207 211 220 221 226 225 223 223 223 223 222 223 227 227 227 226 230 233 234 237 243 253 254 267 270 262 274
190 238 278 280 274 270 259 270 159 287 308 295 285 299 307 278 252 226 213 209 205 207 213 215 211 220 223 224 229 231 231 230 226 228 231 234 236 238 238 241 247 248 249 258 263 268 273 268 273
304 327 320 229 256 247 249 301 190 303 291 275 290 295 306 301 273 242 234 224 225 229 223 227 232 230 225 230 233 233 234 234 229 241 246 244 244 245 246 251 250 258 261 264 268 272 273 279 287
37 39 349 283 273 262 142 278 300 299 309 291 297 303 323 297 274 271 243 236 232 224 225 229 232 239 237 232 232 234 236 237 223 225 241 262 252 246 246 248 250 255 258 263 270 281 284 287 295
360 234 237 305 234 262 140 290 265 317 317 313 313 319 318 318 270 253 258 238 229 236 232 231 237 238 233 227 229 230 235 237 227 213 217 222 242 248 242 240 248 251 246 256 271 283 296 302 304
216 236 242 254 284 132 305 254 276 283 301 297 306 314 319 317 291 265 259 266 251 239 232 236 242 242 233 226 227 229 232 227 222 227 231 228 234 241 248 237 234 228 231 246 268 285 296 304 308
222 234 252 263 271 189 244 248 260 267 281 278 281 296 313 312 314 298 289 280 273 256 232 233 237 238 233 232 226 227 229 226 226 223 234 238 234 234 251 261 244 245 255 262 260 273 293 306 310
237 264 274 279 264 156 266 253 253 249 238 247 257 285 291 295 292 284 290 286 282 273 265 241 234 237 235 228 225 226 229 229 240 236 237 244 238 233 237 239 248 272 268 262 266 266 297 308 312
233 194 251 231 309 273 292 279 257 255 243 254 267 268 277 280 293 289 281 274 277 273 269 264 245 236 232 230 226 226 226 228 235 232 233 233 239 236 237 233 255 249 259 258 261 258 270 304 304
256 197 232 256 298 270 131 284 282 243 249 256 266 272 271 282 292 291 281 265 269 270 266 265 253 237 233 230 225 226 230 225 225 232 231 233 235 237 243 246 244 243 251 247 248 249 252 265 291
236 202 226 246 247 216 258 272 250 332 280 269 257 268 275 284 289 294 279 277 273 274 272 265 255 244 233 229 227 228 226 224 228 221 218 218 224 231 236 241 241 243 247 243 238 233 218 258 271
234 279 42 49 115 235 220 215 189 205 229 258 278 284 297 301 295 298 279 275 276 277 282 271 260 245 236 228 226 223 224 221 218 224 231 233 234 235 234 232 239 244 244 240 244 236 233 244 264
154 66 310 302 257 266 230 241 241 232 248 243 292 326 334 327 310 296 286 277 274 279 284 277 255 240 236 225 223 223 225 229 237 238 239 242 244 244 243 244 247 249 247 245 243 242 244 246 241
211 167 182 247 232 283 245 241 239 220 302 359 10 354 352 349 347 301 280 270 276 280 291 281 251 234 228 219 218 218 219 223 231 242 250 255 258 258 254 251 250 251 248 248 248 244 239 240 241
203 200 204 279 331 275 227 292 299 266 307 6 324 349 350 342 346 349 308 296 295 287 287 270 245 218 209 209 202 204 212 225 241 255 259 258 256 254 250 246 242 240 239 240 242 245 244 245 243
207 179 254 56 285 260 236 234 235 238 304 324 343 337 334 335 332 330 339 329 298 290 256 216 208 202 203 201 212 219 224 232 238 243 240 257 257 246 247 248 248 248 249 251 252 252 252 255 258
296 98 82 350 186 260 288 251 217 204 297 286 308 320 321 326 321 310 308 317 326 282 246 212 218 219 217 220 213 215 216 230 232 232 235 239 237 239 235 246 250 248 248 249 253 256 257 255 255
269 270 262 228 210 227 258 258 288 224 276 271 300 311 317 316 317 314 290 305 321 311 278 262 251 249 240 237 236 234 230 229 230 234 235 239 240 238 238 247 252 248 252 255 254 255 258 259 260